Weather History for Sheridan, WY

Change the Weather History Date:

Wednesday, March 19, 2014

  Actual Average Record
Temperature  
Mean Temperature 30 °F 36 °F  
Max Temperature 41 °F 50 °F 75 °F (1997)
Min Temperature 19 °F 23 °F -5 °F (1965)
Degree Days  
Heating Degree Days 35 29  
Month to date heating degree days 613 602  
Since 1 July heating degree days 6363 6137  
Cooling Degree Days 0 0  
Month to date cooling degree days 0 0  
Year to date cooling degree days 0 0  
Moisture  
Dew Point 20 °F    
Average Humidity 61    
Maximum Humidity 77    
Minimum Humidity 44    
Precipitation  
Precipitation 0.00 in 0.03 in 0.62 in (1937)
Month to date precipitation 1.03 0.53  
Year to date precipitation 2.88 1.63  
Sea Level Pressure  
Sea Level Pressure 30.05 in    
Wind  
Wind Speed 5 mph (South)    
Max Wind Speed 15 mph    
Max Gust Speed 23 mph    
Visibility 10 miles    
Events      
T = Trace of Precipitation, MM = Missing Value Source: NWS Daily Summary

Daily Weather History Graph

Daily Weather History Graph

Search for Another Location

Airport:

Trip Planner

Search our weather history database for the weather conditions in past years. The results will help you decide how hot, cold, wet, or windy it might be!

Date:

Astronomy

Mar. 19, 2014 Rise Set
Actual Time 7:12 AM MDT 7:19 PM MDT
Civil Twilight 6:43 AM MDT 7:48 PM MDT
Nautical Twilight 6:09 AM MDT 8:22 PM MDT
Astronomical Twilight 5:34 AM MDT 8:57 PM MDT
Moon 10:49 PM MDT (3/19) 8:32 AM MDT (3/19)
Length of Visible Light 13h 04m
Length of Day
12h 06m
Waning Gibbous, 91% of the Moon is Illuminated
Mar 19
Waning Gibbous
Mar 23
Last Quarter
Mar 30
New
Apr 7
First Quarter
Apr 15
Full

Hourly Weather History & Observations

Time (MDT) Temp. Windchill Dew Point Humidity Pressure Visibility Wind Dir Wind Speed Gust Speed Precip Events Conditions
12:53 AM 30.9 °F 22.2 °F 19.9 °F 64% 30.10 in 10.0 mi West 10.4 mph - N/A   Mostly Cloudy
1:53 AM 28.9 °F 20.4 °F 19.0 °F 67% 30.10 in 10.0 mi WNW 9.2 mph - N/A   Mostly Cloudy
2:53 AM 28.9 °F 21.9 °F 18.0 °F 64% 30.11 in 10.0 mi NW 6.9 mph - N/A   Clear
3:53 AM 25.0 °F 17.1 °F 17.1 °F 72% 30.11 in 10.0 mi South 6.9 mph - N/A   Clear
4:53 AM 23.0 °F 18.4 °F 15.1 °F 72% 30.12 in 10.0 mi South 3.5 mph - N/A   Clear
5:53 AM 19.0 °F - 12.9 °F 77% 30.14 in 10.0 mi Calm Calm - N/A   Clear
6:53 AM 21.0 °F - 14.0 °F 74% 30.14 in 10.0 mi Calm Calm - N/A   Clear
7:53 AM 21.0 °F 14.6 °F 15.1 °F 78% 30.16 in 10.0 mi SSW 4.6 mph - N/A   Clear
8:53 AM 28.0 °F - 18.0 °F 66% 30.14 in 10.0 mi Calm Calm - N/A   Clear
9:53 AM 30.9 °F 25.2 °F 19.9 °F 64% 30.13 in 10.0 mi South 5.8 mph - N/A   Clear
10:53 AM 34.0 °F 31.0 °F 19.0 °F 54% 30.11 in 10.0 mi SSE 3.5 mph - N/A   Clear
11:53 AM 36.0 °F 33.3 °F 17.1 °F 46% 30.10 in 10.0 mi SE 3.5 mph - N/A   Clear
12:53 PM 37.0 °F 33.3 °F 18.0 °F 46% 30.09 in 10.0 mi ESE 4.6 mph - N/A   Clear
1:53 PM 37.9 °F 30.5 °F 21.9 °F 53% 30.06 in 10.0 mi SSE 11.5 mph - N/A   Clear
2:53 PM 39.0 °F 32.8 °F 24.1 °F 55% 30.02 in 10.0 mi SSE 9.2 mph - N/A   Clear
3:53 PM 39.9 °F 32.5 °F 25.0 °F 55% 29.96 in 10.0 mi SE 12.7 mph 23.0 mph N/A   Partly Cloudy
4:53 PM 39.9 °F 36.7 °F 26.1 °F 58% 29.97 in 10.0 mi SE 4.6 mph - N/A   Clear
5:53 PM 37.9 °F 34.4 °F 28.9 °F 70% 29.97 in 10.0 mi SSW 4.6 mph - N/A   Clear
6:53 PM 37.9 °F - 27.0 °F 65% 29.96 in 10.0 mi Calm Calm - N/A   Clear
7:53 PM 32.0 °F 28.7 °F 25.0 °F 75% 29.97 in 10.0 mi WSW 3.5 mph - N/A   Clear
8:53 PM 28.0 °F 24.2 °F 21.9 °F 78% 29.98 in 10.0 mi WNW 3.5 mph - N/A   Clear
9:53 PM 30.0 °F 26.5 °F 21.9 °F 72% 29.97 in 10.0 mi SSE 3.5 mph - N/A   Clear
10:53 PM 28.9 °F 25.2 °F 21.0 °F 72% 29.96 in 10.0 mi East 3.5 mph - N/A   Clear
11:53 PM 34.0 °F 28.8 °F 17.1 °F 50% 29.94 in 10.0 mi West 5.8 mph - N/A   Clear